When you browse on this site, cookies collect data to enhance your experience and personalize the content and advertising you see.
Visit our Privacy Policy to learn more. By continuing to use the site, you agree to this use of cookies and data.
  • In Österreich
  • Länderverzeichnis
  • Für 7 Tage
  • Wassertemperatur
  • Satellitenkarten
  • Wetterkarte
  • News
  • Widgets
  • user-avatar
    Anmelden

    Stündliche Wetter Snopovo

    Heute, 16 Februar, Samstag

    Zeit Temperatur Niederschläge Wind Luftdruck Luftfeuchtigkeit
    00:00 0°C° 0 mm 4 m/S 752 mmHg 94%
    01:00 0°C° 0 mm 4 m/S 752 mmHg 95%
    02:00 +2°C° 0 mm 2 m/S 752 mmHg 96%
    03:00 +2°C° 0 mm 2 m/S 752 mmHg 96%
    04:00 0°C° 0 mm 3 m/S 752 mmHg 96%
    05:00 0°C° 0 mm 3 m/S 752 mmHg 96%
    06:00 0°C° 0 mm 3 m/S 752 mmHg 96%
    07:00 0°C° 0 mm 3 m/S 752 mmHg 96%
    08:00 0°C° 0 mm 3 m/S 752 mmHg 96%
    09:00 +1°C° 0 mm 3 m/S 751 mmHg 94%
    10:00 +1°C° 0 mm 3 m/S 751 mmHg 92%
    11:00 +1°C° 0 mm 3 m/S 750 mmHg 90%
    12:00 +2°C° 0 mm 3 m/S 750 mmHg 87%
    13:00 +2°C° 0 mm 3 m/S 750 mmHg 84%
    14:00 +3°C° 0 mm 4 m/S 749 mmHg 82%
    15:00 +2°C° 0 mm 3 m/S 749 mmHg 82%
    16:00 +2°C° 0 mm 3 m/S 748 mmHg 83%
    17:00 +1°C° 0 mm 3 m/S 748 mmHg 83%
    18:00 +1°C° 0 mm 3 m/S 747 mmHg 82%
    19:00 +1°C° 0 mm 3 m/S 747 mmHg 82%
    20:00 -1°C° 0 mm 4 m/S 746 mmHg 81%
    21:00 -1°C° 0 mm 4 m/S 746 mmHg 82%
    22:00 -1°C° 0 mm 4 m/S 745 mmHg 82%
    23:00 -1°C° 0 mm 4 m/S 745 mmHg 82%

    Morgen, 17 Februar, Sonntag

    Zeit Temperatur Niederschläge Wind Luftdruck Luftfeuchtigkeit
    00:00 -1°C° 0 mm 4 m/S 744 mmHg 83%
    01:00 -1°C° 0 mm 4 m/S 744 mmHg 85%
    02:00 -1°C° 0 mm 4 m/S 744 mmHg 86%
    03:00 -1°C° 0 mm 4 m/S 743 mmHg 87%
    04:00 -1°C° 0 mm 4 m/S 743 mmHg 88%
    05:00 -1°C° 0 mm 5 m/S 743 mmHg 89%
    06:00 -1°C° 0 mm 5 m/S 743 mmHg 89%
    07:00 -1°C° 0 mm 5 m/S 743 mmHg 88%
    08:00 -1°C° 0 mm 4 m/S 743 mmHg 88%
    09:00 -1°C° 0 mm 5 m/S 744 mmHg 83%
    10:00 0°C° 0 mm 5 m/S 744 mmHg 79%
    11:00 -1°C° 0 mm 6 m/S 744 mmHg 74%
    12:00 -1°C° 0 mm 6 m/S 744 mmHg 72%
    13:00 -1°C° 0 mm 6 m/S 745 mmHg 71%
    14:00 -1°C° 0 mm 7 m/S 745 mmHg 69%
    15:00 -2°C° 0 mm 6 m/S 746 mmHg 69%
    16:00 -3°C° 0 mm 6 m/S 746 mmHg 70%
    17:00 -2°C° 0 mm 5 m/S 747 mmHg 70%
    18:00 -4°C° 0 mm 5 m/S 747 mmHg 70%
    19:00 -4°C° 0 mm 5 m/S 748 mmHg 70%
    20:00 -4°C° 0 mm 5 m/S 749 mmHg 71%
    21:00 -5°C° 0 mm 5 m/S 749 mmHg 72%
    22:00 -5°C° 0 mm 5 m/S 750 mmHg 74%
    23:00 -5°C° 0 mm 4 m/S 750 mmHg 75%

    übermorgen, 18 Februar, Montag

    Zeit Temperatur Niederschläge Wind Luftdruck Luftfeuchtigkeit
    00:00 -5°C° 0 mm 4 m/S 751 mmHg 76%
    01:00 -5°C° 0 mm 4 m/S 752 mmHg 77%
    02:00 -5°C° 0 mm 4 m/S 753 mmHg 77%
    03:00 -6°C° 0 mm 3 m/S 753 mmHg 79%
    04:00 -6°C° 0 mm 3 m/S 754 mmHg 80%
    05:00 -6°C° 0 mm 3 m/S 754 mmHg 82%
    06:00 -6°C° 0 mm 3 m/S 755 mmHg 83%
    07:00 -6°C° 0 mm 2 m/S 755 mmHg 84%
    08:00 -6°C° 0 mm 2 m/S 756 mmHg 84%
    09:00 -5°C° 0 mm 2 m/S 756 mmHg 80%
    10:00 -5°C° 0 mm 2 m/S 757 mmHg 76%
    11:00 -2°C° 0 mm 1 m/S 757 mmHg 72%
    12:00 -1°C° 0 mm 1 m/S 757 mmHg 69%
    13:00 -1°C° 0 mm 1 m/S 757 mmHg 65%
    14:00 0°C° 0 mm 1 m/S 757 mmHg 62%
    15:00 -1°C° 0 mm 1 m/S 757 mmHg 66%
    16:00 -2°C° 0 mm 1 m/S 756 mmHg 71%
    17:00 -2°C° 0 mm 1 m/S 756 mmHg 75%
    18:00 -4°C° 0 mm 2 m/S 756 mmHg 75%
    19:00 -4°C° 0 mm 2 m/S 756 mmHg 75%
    20:00 -5°C° 0 mm 3 m/S 756 mmHg 75%
    21:00 -5°C° 0 mm 3 m/S 755 mmHg 74%
    22:00 -5°C° 0 mm 4 m/S 755 mmHg 72%
    23:00 -4°C° 0 mm 4 m/S 755 mmHg 70%

    19 Februar, Dienstag

    Zeit Temperatur Niederschläge Wind Luftdruck Luftfeuchtigkeit
    00:00 -4°C° 0 mm 4 m/S 754 mmHg 68%
    01:00 -4°C° 0 mm 5 m/S 754 mmHg 66%
    02:00 -4°C° 0 mm 5 m/S 753 mmHg 64%
    03:00 -4°C° 0 mm 5 m/S 753 mmHg 66%
    04:00 -4°C° 0 mm 5 m/S 752 mmHg 68%
    05:00 -4°C° 0 mm 5 m/S 752 mmHg 71%
    06:00 -4°C° 0 mm 5 m/S 751 mmHg 73%
    07:00 -4°C° 0 mm 5 m/S 751 mmHg 76%
    08:00 -4°C° 0 mm 5 m/S 751 mmHg 78%
    09:00 -2°C° 0 mm 5 m/S 750 mmHg 77%
    10:00 -1°C° 0 mm 5 m/S 750 mmHg 75%
    11:00 0°C° 0 mm 5 m/S 749 mmHg 73%
    12:00 0°C° 0 mm 5 m/S 749 mmHg 72%
    13:00 +1°C° 0 mm 5 m/S 748 mmHg 71%
    14:00 +1°C° 0 mm 5 m/S 748 mmHg 70%
    15:00 +1°C° 0 mm 5 m/S 747 mmHg 71%
    16:00 0°C° 0 mm 5 m/S 746 mmHg 71%
    17:00 0°C° 0 mm 5 m/S 746 mmHg 72%
    18:00 -1°C° 0 mm 5 m/S 745 mmHg 73%
    19:00 -1°C° 0 mm 5 m/S 744 mmHg 74%
    20:00 -2°C° 0 mm 6 m/S 744 mmHg 75%
    21:00 -2°C° 0 mm 6 m/S 743 mmHg 78%
    22:00 -1°C° 0 mm 6 m/S 742 mmHg 80%
    23:00 -1°C° 0 mm 6 m/S 742 mmHg 83%

    20 Februar, Mittwoch

    Zeit Temperatur Niederschläge Wind Luftdruck Luftfeuchtigkeit
    00:00 0°C° 0.4 mm 5 m/S 741 mmHg 85%
    01:00 0°C° 0.4 mm 5 m/S 741 mmHg 86%
    02:00 +1°C° 0.4 mm 5 m/S 741 mmHg 88%
    03:00 0°C° 0.1 mm 5 m/S 740 mmHg 89%
    04:00 0°C° 0.1 mm 4 m/S 740 mmHg 90%
    05:00 0°C° 0.1 mm 4 m/S 740 mmHg 91%
    06:00 0°C° 0.1 mm 4 m/S 740 mmHg 91%
    07:00 0°C° 0.1 mm 4 m/S 740 mmHg 90%
    08:00 0°C° 0.1 mm 4 m/S 740 mmHg 90%
    09:00 0°C° 0.3 mm 4 m/S 739 mmHg 89%
    10:00 0°C° 0.3 mm 4 m/S 739 mmHg 88%
    11:00 +1°C° 0.3 mm 4 m/S 739 mmHg 87%
    12:00 +1°C° 0.1 mm 4 m/S 739 mmHg 85%
    13:00 +1°C° 0.1 mm 4 m/S 738 mmHg 84%
    14:00 +1°C° 0.1 mm 4 m/S 738 mmHg 83%
    15:00 +1°C° 0.4 mm 4 m/S 738 mmHg 85%
    16:00 0°C° 0.4 mm 4 m/S 738 mmHg 87%
    17:00 +1°C° 0.4 mm 3 m/S 737 mmHg 89%
    18:00 +1°C° 0.2 mm 3 m/S 737 mmHg 90%
    19:00 0°C° 0.2 mm 4 m/S 738 mmHg 90%
    20:00 0°C° 0.2 mm 4 m/S 738 mmHg 90%
    21:00 0°C° 0.4 mm 5 m/S 738 mmHg 89%
    22:00 0°C° 0.4 mm 5 m/S 738 mmHg 87%
    23:00 -2°C° 0.4 mm 6 m/S 739 mmHg 86%

    21 Februar, Donnerstag

    Zeit Temperatur Niederschläge Wind Luftdruck Luftfeuchtigkeit
    00:00 -3°C° 0.2 mm 6 m/S 739 mmHg 82%
    01:00 -5°C° 0.2 mm 6 m/S 740 mmHg 78%
    02:00 -6°C° 0.2 mm 6 m/S 741 mmHg 74%
    03:00 -8°C° 0.1 mm 6 m/S 742 mmHg 73%
    04:00 -9°C° 0.1 mm 6 m/S 742 mmHg 71%
    05:00 -10°C° 0.1 mm 6 m/S 743 mmHg 69%
    06:00 -9°C° 0.1 mm 6 m/S 744 mmHg 69%
    07:00 -9°C° 0.1 mm 6 m/S 744 mmHg 70%
    08:00 -9°C° 0.1 mm 7 m/S 745 mmHg 70%
    09:00 -9°C° 0.1 mm 7 m/S 745 mmHg 68%
    10:00 -9°C° 0.1 mm 7 m/S 746 mmHg 67%
    11:00 -9°C° 0.1 mm 7 m/S 746 mmHg 65%
    12:00 -9°C° 0.1 mm 7 m/S 747 mmHg 64%
    13:00 -9°C° 0.1 mm 7 m/S 748 mmHg 64%
    14:00 -9°C° 0.1 mm 7 m/S 748 mmHg 63%
    15:00 -9°C° 0.1 mm 7 m/S 749 mmHg 64%
    16:00 -10°C° 0.1 mm 6 m/S 750 mmHg 66%
    17:00 -10°C° 0.1 mm 6 m/S 751 mmHg 67%
    18:00 -10°C° 0.1 mm 6 m/S 751 mmHg 68%
    19:00 -10°C° 0.1 mm 6 m/S 752 mmHg 68%
    20:00 -10°C° 0.1 mm 6 m/S 753 mmHg 68%
    21:00 -11°C° 0.1 mm 6 m/S 754 mmHg 67%
    22:00 -11°C° 0.1 mm 6 m/S 754 mmHg 67%
    23:00 -11°C° 0.1 mm 6 m/S 755 mmHg 66%
    Mehr zeigen